STARLINK-34043, 63823

Orbit data source: Space-Track

STARLINK-34043, 63823 is a payload satellite owned by SpaceX/Seattle (US) in LEO that was launched on Sun, 04 May 2025 UTC via an FALCON 9 launch vehicle from the Air Force Eastern Test Range (AFETR). Payload-class satellites include a variety of spacecraft equipped with specific instruments for various scientific and technological missions. These include communications satellites like Starlink; space stations such as the ISS; scientific satellites like the Hubble; Earth observation satellites from companies like Planet Labs, Umbra, and HawkEye 360; GPS; miniature CubeSats for education and research; and military/defense satellites.

Loading next visibility...
Identifier
63823, 2025-092V
Orbit
LEO
Last TLE update
8 hours ago
Origin
Manufacturer
SpaceX/Seattle
Mission
Operational Commercial Communications
Bus & Motor
STARLINK V2MO, Unknown motor
Mass
575 kg wet, ~530 kg dry
Launch date (UTC)
2025-05-04 (2 months ago)
Launch vehicle
FALCON 9
Launch site
Air Force Eastern Test Range (AFETR)
Object type
Payload
Rocket body
Debris
Shape & HBR
Box + 1 Pan, 29 m
Radar Cross Section
41.120 m², Large (>1 m²)

Expand to show TLE details & history

TLE from 8 hours ago
0 STARLINK-34043
1 63823U 25092V   25183.88522745  .00037848  00000-0  90784-3 0  9991
2 63823  43.0011 140.3892 0003697 277.6643  82.3794 15.40727261 10447
Epoch: 2025-07-02T21:14Z
TLE epoch observation values (Epoch: 2025-07-02T21:14:43.651Z)
Latitude
-0°
Longitude
-99.45259°
Altitude
443.402 km
Speed
7.648 km/s
True Right ascension
09h 21m 33s
True Declination
0° 00' 00"
Sunlit
Object was in daylight at epoch
Visualization orbit readout
Latitude
40.53654°
Longitude
12.79078°
Altitude
448.951 km
Speed
7.647 km/s
Apparent Right ascension
12h 57m 51s
Apparent Declination
29° 13' 19"
Sunlit
Object is in partial shadow
Visualization observer readout
Local Sidereal Time
17:15:02
Azimuth
279.498° WNW
Elevation
37.125°
Doppler factor
1
Orbital elements
Apogee altitude
448.441 km
Perigee altitude
443.395 km
Semi-major axis
6,824.055 km
Eccentricity
0.00037
Inclination
43.0011°
RAAN
140.3892°
Arg. of periapsis
277.6643°
True anomaly
Unknown
Mean anomaly
82.3794°
Eccentric anomaly
Unknown
Mean motion
3.85017 °/min
Orbital period
93.5 mins
BSTAR
0.00090784
Loading maneuver chart data...
Loading SW <> Apogee altitude chart data...
Loading historical data...
Loading historical data...
Loading historical data...
Loading historical data...
Loading historical data...
Loading historical data...
Loading historical data...

STARLINK-34043 Visibility forecast

Observer location: undefined°, undefined°

Span
Click to sort rows by Start time (UTC) header in descending order
Start Az.
Max El. time (UTC)
Max El. Az.
Max El.
End time (UTC)
End Az.
4 mins2025-07-03 05:29:31.592Z278.439° WNW2025-07-03 05:30:31.592Z242.888° WSW43.112°2025-07-03 05:33:31.592Z117.693° SE
4 mins2025-07-03 23:54:31.592Z186.024° SSW2025-07-03 23:55:31.592Z161.3° S23.356°2025-07-03 23:58:31.592Z93.363° ESE
5 mins2025-07-04 01:31:31.592Z258.689° W2025-07-04 01:33:31.592Z290.38° WNW43.325°2025-07-04 01:36:31.592Z69.807° E
4 mins2025-07-04 03:10:31.592Z299.784° NW2025-07-04 03:12:31.592Z28.508° NE35.695°2025-07-04 03:14:31.592Z72.73° E
5 mins2025-07-04 04:48:31.592Z287.491° WNW2025-07-04 04:50:31.592Z120.452° SE44.44°2025-07-04 04:53:31.592Z110.27° ESE
|